Погода в Нажерове

Россия / Ивановская область     57°06′43″N   39°55′40″E
темп.,
°C
ветер,
м/с
пор.,
м/с
влажн.,
%
обл.,
%
осадки,
мм/ч
давл.,
гПа
погр.,
м
22 апреля, чт
чт2200:00+3ююз3893100 0.0 1011349
03:00+3ю4994100 0.0 1012342
06:00+3ю4993100 0.0 1013329
09:00+6ю5984100 0.0 1014591
12:00+9ююз6972100 0.3 10141239
15:00+11ююз696885 0.7 10141345
18:00+11ююз487198 0.1 1015455
21:00+7ююв4118936 0.2 1016224
23 апреля, пт
пт2300:00+6ююв4119120 0.1 1016275
03:00+5ююв411945 0.1 1016256
06:00+6ююв513939 0.0 1015319
09:00+11ю6127493 0.1 1015576
12:00+15ю7125328 0.1 10151904
15:00+15ю71150100 0.2 10141889
18:00+14ю6115322 0.0 1013986
21:00+9юв4127639 0.5 1013321
24 апреля, сб
сб2400:00+9ююв5157786 0.1 1012454
03:00+7юв513846 0.1 1010427
06:00+8юв6158476 0.1 1007537
09:00+11ююв71474100 0.4 10061203
12:00+6зюз6891100 1.3 1006600
15:00+4з41096100 2.6 1008605
18:00+5сз3685100 1.4 1008639
21:00+3з019143 1.4 100811
25 апреля, вс
вс2500:00+2юз24931 0.0 100760
03:000зюз38915 0.0 1008173
06:000зюз310875 0.0 1008296
09:00+5зюз57685 0.0 1008930
12:00+7зюз5751100 0.1 10091977
15:00+8зюз5750100 0.6 10091694
18:00+7зюз466246 0.7 10091055
21:00+2юз38805 0.8 1011164
26 апреля, пн
пн2600:00+1юз410875 0.0 1012289
03:00−1юз39915 0.0 1012218
06:000ююз39865 0.0 1012353
09:00+5юз47648 0.0 10121095
12:00+8юз564795 0.5 10121955
15:00+8юз574696 1.5 10111925
18:00+7зюз575484 0.3 1011536
21:00+3зюз228042 0.4 101111